CST,Max TemperatureF,Mean TemperatureF,Min TemperatureF,Max Dew PointF,MeanDew PointF,Min DewpointF,Max Humidity, Mean Humidity, Min Humidity, Max Sea Level PressureIn, Mean Sea Level PressureIn, Min Sea Level PressureIn, Max VisibilityMiles, Mean VisibilityMiles, Min VisibilityMiles, Max Wind SpeedMPH, Mean Wind SpeedMPH, Max Gust SpeedMPH,PrecipitationIn, CloudCover, Events, WindDirDegrees
2012-12-1,37,34,30,36,33,28,100,93,87,29.92,29.76,29.69,7,3,0,16,7,23,0.00,8,Fog,177
2012-12-2,42,36,30,37,33,30,100,96,81,29.89,29.77,29.51,10,4,0,17,6,29,0.00,6,Fog,153
2012-12-3,46,32,17,43,32,10,100,83,73,29.80,29.52,29.39,10,9,5,30,15,39,0.02,4,Rain-Snow,205
2012-12-4,19,12,5,10,8,3,92,80,68,30.37,30.14,29.82,10,10,7,28,15,34,0.00,3,Snow,277
2012-12-5,35,19,3,23,13,1,92,72,55,30.36,30.02,29.65,10,10,10,15,5,21,0.00,1,,133
2012-12-6,35,28,21,30,22,16,93,82,65,29.94,29.77,29.59,10,10,7,20,13,28,0.00,7,Rain,249
2012-12-7,24,12,0,19,9,-4,92,81,68,30.07,30.02,29.93,10,10,10,10,6,,0.00,3,,294
2012-12-8,24,11,-2,21,12,-6,100,89,80,30.09,30.01,29.95,10,8,1,8,2,,0.00,7,Snow,78
2012-12-9,17,6,-4,16,5,-8,100,85,72,30.21,30.15,30.09,10,8,2,13,8,20,0.00,5,Snow,358
2012-12-10,14,4,-5,7,0,-8,92,80,62,30.08,29.86,29.69,10,10,10,7,2,,0.00,4,,141
2012-12-11,12,2,-7,9,2,-11,92,82,72,29.93,29.78,29.66,10,7,2,14,6,18,0.00,6,Snow,263
2012-12-12,23,9,-5,16,8,-9,93,85,74,29.93,29.84,29.73,10,10,10,13,4,16,0.00,6,,94
2012-12-13,17,10,3,14,10,1,93,88,73,30.09,30.04,29.93,10,9,2,7,3,,0.00,7,Snow,340
2012-12-14,33,20,6,25,18,5,100,84,56,30.08,29.95,29.79,10,9,0,13,4,18,0.00,2,Fog-Snow,117
2012-12-15,33,27,21,32,28,19,100,94,86,29.78,29.65,29.58,10,4,0,12,5,,0.15,7,Fog-Rain-Snow,61
2012-12-16,24,20,15,23,18,14,100,95,93,29.78,29.73,29.63,10,8,1,12,8,16,0.00,8,Snow,308
2012-12-17,19,16,14,18,15,12,100,94,86,29.77,29.70,29.63,10,9,2,7,3,,0.00,8,Snow,250
2012-12-18,24,19,14,21,18,12,100,92,86,29.72,29.67,29.64,10,9,2,5,2,,0.00,8,Snow,94
2012-12-19,28,24,19,27,21,18,100,93,80,29.99,29.83,29.72,10,7,2,12,4,18,0.00,7,Snow,220
2012-12-20,19,10,0,19,7,-2,100,89,79,30.15,30.06,29.98,10,8,1,10,5,,0.00,6,Snow,323
2012-12-21,10,3,-4,7,2,-8,92,89,85,30.25,30.17,30.07,10,7,1,7,2,,0.00,4,Snow,280
2012-12-22,15,12,8,10,8,5,92,86,79,30.13,30.04,29.97,10,9,3,9,4,,0.00,5,Snow,302
2012-12-23,32,14,-4,7,-1,-8,92,85,78,30.17,30.14,30.09,10,9,4,6,3,,0.00,3,Snow,313
2012-12-24,1,-4,-9,-6,-9,-15,92,82,71,30.31,30.18,30.10,10,10,10,9,6,,0.00,4,,282
2012-12-25,1,-5,-11,-6,-11,-17,92,81,72,30.43,30.39,30.31,10,10,10,9,6,,0.00,2,,240
2012-12-26,6,-2,-9,1,-7,-15,92,82,72,30.36,30.29,30.25,10,9,3,5,1,,0.00,3,Snow,190
2012-12-27,17,3,-11,10,2,-15,92,86,73,30.26,30.20,30.14,10,10,7,6,1,,0.00,8,Snow,80
2012-12-28,19,11,3,16,10,1,100,91,80,30.13,30.05,29.98,10,8,2,7,0,,0.00,7,Snow,247
2012-12-29,12,2,-7,10,3,-11,100,87,73,30.05,29.99,29.93,10,7,2,10,4,,0.00,5,Snow,226
2012-12-30,21,7,-7,18,8,-11,100,88,78,30.04,29.93,29.80,10,9,3,15,3,21,0.00,6,Snow,220
2012-12-31,8,0,-11,5,-8,-15,92,82,71,30.20,30.15,29.98,10,10,10,14,8,22,0.00,0,,250